www.pogodaiklimat.ru

Погода и климат >> Архив погоды >> Россия >> Ханты-Мансийский АО >> Вонъеган


ПОГОДА в Вонъегане

  • Прогноз погоды в Вонъегане
  • Монитор погоды в Вонъегане

АРХИВ ПОГОДЫ в Вонъегане

Время (UTC), дата Ветер
(напр.,м/с)
 
Видим.   Явления Облачность Т
(С)
Тd
(С)
f
(%)
Тe
(С)
Тes
(С)
Комфортность P
(гПа)
Po
(гПа)
Тmin
(С)
Tmax
(С)
R
(мм)
R24
(мм)
S
(см)
00 18.03 Ю 1 20 км {ливн. осадки} 9/9 600 м
[Cb cap]
-6.2 -10.9 69 -8 -8 1027.7 1013.2
03 18.03 Ю 1 20 км 9/8 600 м
[Sc Ci sp]
-7.2 -11.4 72 -9 -9 1027.6 1013.1 -8.4 0.2 72
06 18.03 Ю 1 н/о н/о -3.3 -9.5 62 -5 -5 1027.3 1013.0
09 18.03 Ю 2 20 км 10/3 1000 м
[Sc Ac trans Cs]
+1.0 -9.0 47 -2 -0 1026.9 1012.8
12 18.03 ЮЗ 2 н/о н/о +1.4 -7.7 51 -1 -1 1026.6 1012.5
15 18.03 ЮЗ 1 20 км 6/5 1000 м
[Sc Ac trans]
-2.4 -7.8 66 -4 -4 1027.0 1012.7 +1.6
18 18.03 штиль 0 20 км 8/8 1000 м
[Sc]
-4.8 -8.1 78 -6 -6 1026.8 1012.4
21 18.03 Ю 1 20 км 3/0
[Ci sp]
-7.3 -8.9 88 -10 -10 1027.4 1012.8
00 19.03 Ю 1 20 км 9/9 600 м
[Sc]
-7.5 -9.1 88 -10 -10 1027.7 1013.2
03 19.03 штиль 0 20 км 10/3 600 м
[Sc Ac trans Ci sp]
-6.3 -8.0 88 -7 -7 1028.1 1013.6 -8.3 72
06 19.03 Ю 2 н/о н/о +2.4 -4.3 61 -0 -0 1027.3 1013.2
09 19.03 Ю 2 20 км 9/3 1000 м
[Sc Ac trans Ci fib]
+4.5 -3.8 55 +2 +4 1026.1 1012.3
12 19.03 Ю 1 н/о н/о +5.1 -3.0 56 +4 +4 1024.8 1011.0
15 19.03 Ю 2 20 км 8/0
[Ci sp]
+1.5 -3.5 69 -2 -2 1024.7 1010.7 +5.5
18 19.03 Ю 1 20 км 9/9 1000 м
[Sc]
-0.1 -4.8 71 -2 -2 1023.6 1009.5
21 19.03 Ю 2 20 км 10/0
[Cs]
-1.7 -6.8 68 -5 -5 1022.7 1008.5
00 20.03 Ю 2 20 км 10/0
[Cs]
-3.0 -9.3 62 -7 -7 1021.1 1006.9
03 20.03 Ю 3 20 км 10/0
[Ac trans Ci sp]
-3.6 -9.6 63 -8 -8 1019.9 1005.7 -3.7 71
06 20.03 Ю 3 н/о н/о -0.5 -8.7 54 -5 -5 1017.7 1003.6
09 20.03 Ю 5 20 км 10/5 600 м
[Sc Ac As]
+5.1 -9.2 35 +1 +2 1015.0 1001.3
12 20.03 ЮЗ 1
{10}
н/о н/о +4.3 -6.7 45 +4 +4 1014.1 1000.4
15 20.03 Ю 2 20 км 10/8 600 м
[Sc Ac und]
+3.2 -7.2 46 +1 +1 1013.2 999.4 +5.7
18 20.03 З 2 20 км в посл. час ливневой снег 10/10 600 м
[Cb cap]
+2.6 +0.5 86 -1 -1 1012.4 998.5
21 20.03 З 2 20 км 9/9 600 м
[Cb cap]
+0.7 +0.2 96 -3 -3 1013.1 999.1
00 21.03 З 2 20 км 10/5 600 м
[Sc Ac trans Ci sp]
+0.5 -1.5 86 -3 -3 1013.1 999.1
03 21.03 З 1 20 км 10/3 600 м
[Sc Ci sp]
-1.4 -2.5 92 -4 -3 1012.8 938.7 -1.5 0.2 69
06 21.03 З 3 20 км 10/6 600 м
[Cu Sc Cs]
+3.1 -4.8 56 -0 +1 1012.2 998.3
09 21.03 ЮЗ 3 20 км 6/4 600 м
[Cu Sc Ci sp]
+4.4 -5.3 49 +1 +4 1011.8 998.0
12 21.03 ЮЗ 2 н/о н/о +4.8 -4.9 49 +3 +3 1010.9 997.2
15 21.03 ЮЗ 1 20 км 3/3 600 м
[Sc]
+1.1 -3.8 70 -0 -0 1011.6 997.7 +5.6
18 21.03 ЮЗ 3 20 км 3/0
[Ci sp]
-0.2 -2.3 86 -5 -5 1012.0 998.1
21 21.03 З 2 20 км ясно -1.0 -3.3 84 -5 -5 1012.6 998.6
00 22.03 ЮЗ 2 20 км ясно -3.3 -4.7 90 -7 -7 1013.5 999.4
03 22.03 ЮЗ 2 20 км 3/0
[Ci fib]
-2.9 -5.3 83 -7 -6 1014.2 1000.1 -3.9 68
06 22.03 З 3 н/о н/о +1.1 -6.9 55 -3 -3 1014.9 1001.0
09 22.03 Ю 2 20 км 10/8 600 м
[Sc Ci sp]
+3.5 -6.5 48 +1 +2 1014.9 1001.1
12 22.03 ЮЗ 2 н/о н/о +4.0 -7.3 43 +2 +2 1014.6 1000.8
15 22.03 Ю 1 20 км 10/4 600 м
[Sc Ac trans Ci sp]
+0.5 -7.5 55 -1 -1 1015.3 1001.3 +4.3
18 22.03 Ю 2 20 км 10/0
[Ac trans Ci sp]
-1.6 -5.5 75 -5 -5 1015.9 1001.8
21 22.03 Ю 2 20 км 10/6 300 м
[Sc As trans]
-3.4 -3.8 97 -8 -8 1016.0 1001.9
00 23.03 Ю 2 20 км 10/10 300 м
[St]
-2.1 -2.2 99 -6 -6 1015.7 1001.6
03 23.03 Ю 1 20 км {снег} 10/10 100 м
[St]
-1.6 -1.7 99 -4 -4 1016.2 1002.1 -3.5 0.5 68
06 23.03 Ю 2 н/о н/о +0.7 -1.5 85 -3 -3 1016.4 1002.5
09 23.03 СЗ 1 10 км слаб. ливневой снег 9/9 600 м
[Cb cap]
+3.8 -3.8 58 +3 +3 1015.7 1001.9
12 23.03 СЗ 2 н/о н/о +4.3 -5.6 49 +2 +2 1015.8 1002.1
15 23.03 З 1 20 км {ливн. осадки} 8/4 600 м
[Cb cap Ac trans]
+0.8 -5.5 63 -1 -1 1017.6 1003.6 +5.6 0.4
18 23.03 З 1 20 км {ливн. осадки} 9/8 600 м
[Sc Ac trans]
-0.3 -4.5 73 -2 -2 1018.2 1004.2
21 23.03 З 1 20 км 9/9 600 м
[Sc]
-0.8 -6.8 64 -2 -2 1018.5 1004.4
00 24.03 З 1 20 км ясно -3.9 -8.1 73 -6 -6 1018.9 1004.6
03 24.03 ЮЗ 2 20 км 9/9 600 м
[Sc]
-2.5 -6.2 76 -6 -6 1019.0 1004.8 -4.6 67
06 24.03 Ю 2 н/о н/о +1.2 -6.0 59 -2 -2 1018.8 1004.8
09 24.03 ЮЗ 4 20 км 9/9 600 м
[Cb cap]
+4.1 -7.1 44 +1 +1 1017.1 1003.3
12 24.03 ЮЗ 3 н/о н/о +4.0 -5.9 48 +1 +1 1016.1 1002.3
15 24.03 Ю 2 20 км 1/0
[Ac trans]
+1.5 -7.6 51 -1 -1 1015.6 1001.7 +4.8
18 24.03 Ю 2 20 км 8/8 600 м
[Sc]
-0.8 -7.2 62 -4 -4 1015.4 1001.4

 

Местоположение метеостанции Вонъеган (Ханты-Мансийский АО, Россия): широта 61.95 долгота 64.90 высота над уровнем моря 111 м.

В архиве по умолчанию представлена погода в Вонъегане за последнюю неделю. Архивные данные за месяц целиком и за предыдущие месяцы, начиная с января 2011 года, Вы можете получить, выбрав интересующий диапазон дат из раскрывающегося списка и нажав кнопку "Ввод!".


*Определитесь, кто Вы:
робот инопланетянин человек

Внимание! Время в таблицах - всемирное. Для получения местного времени необходимо прибавить поправку, которая равна 5 ч.

Смотрите также архив погоды в соседних городах и на ближайших метеорологических станциях:

Погода в Октябрьском (Ханты-Мансийский АО, Россия) (82 км)
Погода в Талинке (Ханты-Мансийский АО, Россия) (94 км)
Погода в Агирише (Ханты-Мансийский АО, Россия) (98 км)
Погода в Югорске (Ханты-Мансийский АО, Россия) (108 км)
Погода в Игриме (Ханты-Мансийский АО, Россия) (141 км)
Погода в Атымье (Свердловская область, Россия) (175 км)
Погода в Шаиме (Ханты-Мансийский АО, Россия) (185 км)
Погода в Няксимволе (Ханты-Мансийский АО, Россия) (216 км)
Погода в Березово (Ханты-Мансийский АО, Россия) (219 км)
Погода в Казым-Мысе (Ханты-Мансийский АО, Россия) (230 км)

Пояснения к столбцам:

Ветер - указаны скорость ветра в м/с - средняя за 10 мин, порывы в срок и между сроками (в фигурных скобках) и направление, откуда дует ветер: С - северный, СВ - северо-восточный, В - восточный, ЮВ - юго-восточный, Ю - южный, ЮЗ - юго-западный, З - западный, СЗ - северо-западный.
Видимость - горизонтальная дальность видимости в метрах или километрах. При видимости от 1 до 10 км при отсутствии осадков обычно наблюдается дымка, при ухудшении видимости до 1 км и менее - туман. В сухую погоду видимость может ухудшаться дымом, пылью или мглою.
Явления - указаны атмосферные явления, наблюдавшиеся в срок или в последний час перед сроком; фигурными скобками обозначены явления, наблюдавшиеся между сроками (за 1-3 часа до срока); квадратными скобками обозначены град или гололедные отложения с указанием их диаметра в мм.
Облачность - указаны через наклонную черту общая и нижняя облачность в баллах и высота нижней границы облаков в метрах; квадратными скобками обозначены формы облаков: Ci - перистые, Cs - перисто-слоистые, Cc - перисто-кучевые, Ac - высококучевые, As - высокослоистые, Sc - слоисто-кучевые, Ns - слоисто-дождевые, Cu - кучевые, Cb - кучево-дождевые. Подробнее классификацию облаков см. в Атласе облаков (PDF).
T - Температура воздуха - температура, измеренная на высоте 2 м над землей.
Td - Температура точки росы - температура, при понижении до которой содержащийся в воздухе водяной пар достигнет насыщения.
f - Относительная влажность воздуха - влажноcть воздуха, измеренная на высоте 2 м над землей.
Te - Эффективная температура - температура, которую ощущает одетый по сезону человек в тени. Характеристика душности погоды. При расчете учитывается влияние влажности воздуха и скорости ветра на теплоощущения человека.
Tes - Эффективная температура на солнце - температура, которую ощущает человек, с поправкой на солнечный нагрев. Характеристика знойности погоды. Зависит от высоты солнца над горизонтом, облачности и скорости ветра. Ночью, в пасмурную погоду, а также при ветре 12 м/с и более поправка равна нулю.
P - Атмосферное давление - приведенное к уровню моря атмосферное давление.
Po - Атмосферное давление - измеренное на уровне метеостанции атмосферное давление.
Tmin - Минимальная температура - минимум температуры воздуха на высоте 2 м над землей.
Tmax - Максимальная температура - максимум температуры воздуха на высоте 2 м над землей.
R - Количество осадков - Количество выпавших осадков за период времени, мм. При наведении курсора мыши на число - период времени, за который выпало указанное количество осадков.
R24 - Количество осадков - Количество выпавших осадков за 24 часа, мм.
S - Снежный покров - Высота снежного покрова, см. При наведении курсора мыши на число - состояние снежного покрова и степень покрытия местности в баллах.